Location: Fort Wayne
(41.1310°N, 85.1290°W)
Time: 04:01:09
(UTC-04:00)

Gbstr 26 Del rocket - Visible Passes

Search period start: 23 August 2017 00:00
Search period end: 02 September 2017 00:00
Orbit: 494 x 1265 km, 51.8° (Epoch: 22 August)

Date Brightness Start Highest point End Pass type
(mag) Time Alt. Az. Time Alt. Az. Time Alt. Az.
29 Aug 6.8 05:01:36 10° SE 05:03:14 11° ESE 05:04:54 10° ESE visible
30 Aug 6.6 04:54:54 10° SSE 04:58:35 14° ESE 05:02:22 10° E visible
30 Aug 5.1 06:37:12 10° SSW 06:44:43 58° SE 06:52:39 10° ENE visible
31 Aug 6.4 04:49:11 10° SSE 04:53:55 18° ESE 04:58:54 10° E visible
31 Aug 4.9 06:32:39 10° SW 06:40:16 67° SE 06:48:21 10° ENE visible
01 Sep 6.2 04:44:25 12° SSE 04:49:17 22° ESE 04:55:07 10° ENE visible
01 Sep 4.7 06:28:10 10° SW 06:35:51 78° SE 06:44:01 10° NE visible
